Flag for U.S.A. Weather past 2 weeks in Thousand Oaks, California, U.S.A.

Now
66 °F

Passing clouds.


Feels Like: 66 °F
Forecast: 58 / 74 °F
Wind: 6 mph from Northeast

Location: Camarillo Airport

Current Time: Oct 20, 2014 at 1:38:26 AM

Latest Report: Oct 20, 2014 at 12:55 AM


Visibility: 10 mi

Pressure: 29.90 "Hg

Humidity: 81%

Dew point: 60 °F

Location of Thousand OaksLocation

Historic Weather in Thousand Oaks — Graph

°F

Thousand Oaks temperature yesterday

Maximum temperature yesterday: 75 °F (at 1:55 PM)
Minimum temperature yesterday: 54 °F (at 5:55 AM)
Average temperature yesterday: 66 °F

Past Weeks' High & Low Weather Summary

 TemperatureHumidityPressure
High84 °F (Oct 5, 11:55 AM)97% (Oct 6, 10:55 PM)30.04 "Hg (Oct 6, 10:55 PM)
Low53 °F (Oct 18, 5:55 AM)26% (Oct 5, 8:55 AM)29.82 "Hg (Oct 8, 4:55 PM)
Average67 °F72%29.94 "Hg
* Reported Oct 4 11:55 PM — Oct 19 11:55 PM, Thousand Oaks, Weather by CustomWeather, © 2014

Note: Actual official high and low records may vary slightly from our data, if they occured in-between our weather recording intervals... More about our weather records

Advertising

Thousand Oaks weather history for previous 24 hours

 ConditionsComfort  
Time TempWeatherWind HumidityBarometerVisibility
11:55 PM
Oct 19
68 °FOvercast.6 mph78%29.90 "Hg10 mi
10:55 PM68 °FOvercast.No wind82%29.90 "Hg10 mi
9:55 PM68 °FOvercast.3 mph82%29.90 "Hg10 mi
7:55 PM68 °FOvercast.3 mph82%29.88 "Hg10 mi
6:55 PM68 °FOvercast.6 mph82%29.88 "Hg10 mi
5:55 PM70 °FSunny.6 mph73%29.86 "Hg10 mi
4:55 PM73 °FSunny.9 mph66%29.86 "Hg10 mi
3:55 PM74 °FSunny.10 mph60%29.87 "Hg10 mi
2:55 PM75 °FSunny.9 mph58%29.88 "Hg10 mi
1:55 PM75 °FSunny.8 mph58%29.89 "Hg10 mi
12:55 PM74 °FSunny.8 mph60%29.92 "Hg10 mi
11:55 AM73 °FPassing clouds.9 mph62%29.94 "Hg10 mi
10:55 AM71 °FPassing clouds.7 mph66%29.94 "Hg10 mi
9:55 AM68 °FSunny.3 mph70%29.94 "Hg10 mi
8:55 AM65 °FSunny.3 mph63%29.93 "Hg10 mi
7:55 AM57 °FClear.3 mph81%29.91 "Hg10 mi
6:55 AM55 °FClear.No wind80%29.90 "Hg10 mi
5:55 AM54 °FClear.No wind86%29.89 "Hg10 mi
4:55 AM56 °FClear.3 mph81%29.88 "Hg10 mi
3:55 AM56 °FClear.No wind84%29.87 "Hg10 mi
2:55 AM58 °FClear.5 mph84%29.88 "Hg10 mi
1:55 AM57 °FClear.No wind87%29.89 "Hg10 mi
Weather by CustomWeather, © 2014

See weather overviewHow to use our weather pages